Location: Kaikalui
(16.5250°N, 81.1500°E)
Time: 11:52:02
(UTC+00:00)

Cosmos 2074 Rocket - Pass Details

Date: 14 April 2026
Orbit: 967 x 984 km, 82.9° (Epoch: 20 May)

Event Time Altitude Azimuth Distance (km) Brightness Sun altitude
Rises 13:22:39 0° 179° (S) 3,646 6.9 -8.3°
Reaches altitude 10° 13:25:08 10° 178° (S) 2,701 6.2 -8.9°
Maximum altitude 13:31:19 76° 93° (E) 999 3.9 -10.4°
Drops below altitude 10° 13:37:31 10° 8° (N) 2,716 6.4 -11.8°
Sets 13:40:02 0° 7° (N) 3,667 7.1 -12.4°
